User: anonymous   Login
Location: Unspecified
(0.0000°N, 0.0000°E)
Time: 20:32:25
(UTC+00:00)
Language:

USA 215 - Orbit

View from above orbital plane
View from above orbital plane
View from above satellite
View from above satellite

Ground track
Ground track

The orbit data is extracted from the following two-line orbital elements,

1 37162U 10046A   21135.90807274 0.00000000  00000-0  00000-0 0    02
2 37162 122.9990 289.2157 0003999  92.4818 267.5181 13.41427616    04
Epoch (UTC): 15 May 2021 21:47:37
Eccentricity: 0.0003999
inclination: 122.9990°
perigee height: 1101 km
apogee height: 1107 km
right ascension of ascending node: 289.2157°
argument of perigee: 92.4818°
revolutions per day: 13.41427616
mean anomaly at epoch: 267.5181°
orbit number at epoch: 0

The dashed part of the orbit path shows where the satellite is in the earth's shadow,  

DLR